• în România
  • Lista ţărilor
  • Pe 7 zile
  • Temperatura apei
  • Hartă satelitară
  • Meteo pe hartă
  • Widget-uri
  • user-avatar
    Intrare

    Meteo pe oră la Samarskiy

    Astăzi, 25 Iunie, Luni

    Timp Temperatura Precipitaţii Vânt Presiune Umiditate
    00:00 +22°C° 0 mm 1 m/s 753 mmHg 83%
    01:00 +22°C° 0 mm 1 m/s 753 mmHg 85%
    02:00 +21°C° 0 mm 1 m/s 753 mmHg 87%
    03:00 +21°C° 0 mm 1 m/s 753 mmHg 89%
    04:00 +22°C° 0 mm 1 m/s 753 mmHg 86%
    05:00 +23°C° 0 mm 1 m/s 754 mmHg 83%
    06:00 +25°C° 0 mm 2 m/s 754 mmHg 79%
    07:00 +26°C° 0 mm 1 m/s 754 mmHg 73%
    08:00 +28°C° 0 mm 1 m/s 754 mmHg 67%
    09:00 +29°C° 0 mm 2 m/s 754 mmHg 59%
    10:00 +30°C° 0 mm 1 m/s 754 mmHg 56%
    11:00 +31°C° 0 mm 1 m/s 754 mmHg 52%
    12:00 +32°C° 0 mm 1 m/s 754 mmHg 49%
    13:00 +32°C° 0 mm 1 m/s 754 mmHg 48%
    14:00 +33°C° 0 mm 1 m/s 754 mmHg 46%
    15:00 +33°C° 0 mm 1 m/s 754 mmHg 45%
    16:00 +33°C° 0 mm 1 m/s 754 mmHg 48%
    17:00 +32°C° 0 mm 1 m/s 754 mmHg 52%
    18:00 +32°C° 0 mm 1 m/s 754 mmHg 56%
    19:00 +30°C° 0 mm 1 m/s 754 mmHg 59%
    20:00 +28°C° 0 mm 1 m/s 754 mmHg 63%
    21:00 +26°C° 0 mm 2 m/s 754 mmHg 66%
    22:00 +25°C° 0 mm 2 m/s 754 mmHg 67%
    23:00 +24°C° 0 mm 2 m/s 754 mmHg 68%

    Mâine, 26 Iunie, Marţi

    Timp Temperatura Precipitaţii Vânt Presiune Umiditate
    00:00 +24°C° 0 mm 2 m/s 754 mmHg 70%
    01:00 +23°C° 0 mm 1 m/s 754 mmHg 70%
    02:00 +23°C° 0 mm 1 m/s 754 mmHg 70%
    03:00 +22°C° 0 mm 1 m/s 754 mmHg 70%
    04:00 +23°C° 0,1 mm 1 m/s 754 mmHg 69%
    05:00 +23°C° 0,1 mm 0 m/s 754 mmHg 67%
    06:00 +24°C° 0,1 mm 0 m/s 754 mmHg 65%
    07:00 +25°C° 0 mm 0 m/s 754 mmHg 61%
    08:00 +27°C° 0 mm 0 m/s 754 mmHg 57%
    09:00 +30°C° 0 mm 1 m/s 754 mmHg 54%
    10:00 +31°C° 0 mm 1 m/s 754 mmHg 51%
    11:00 +32°C° 0 mm 1 m/s 754 mmHg 49%
    12:00 +33°C° 0 mm 1 m/s 754 mmHg 47%
    13:00 +34°C° 0 mm 2 m/s 754 mmHg 47%
    14:00 +34°C° 0 mm 2 m/s 754 mmHg 47%
    15:00 +34°C° 0 mm 3 m/s 754 mmHg 47%
    16:00 +33°C° 0 mm 3 m/s 754 mmHg 53%
    17:00 +31°C° 0 mm 3 m/s 753 mmHg 59%
    18:00 +30°C° 0 mm 3 m/s 753 mmHg 64%
    19:00 +28°C° 0 mm 3 m/s 753 mmHg 69%
    20:00 +27°C° 0 mm 3 m/s 754 mmHg 75%
    21:00 +25°C° 0 mm 3 m/s 754 mmHg 80%
    22:00 +24°C° 1 mm 2 m/s 754 mmHg 84%
    23:00 +24°C° 1 mm 2 m/s 754 mmHg 88%

    Poimâine, 27 Iunie, Miercuri

    Timp Temperatura Precipitaţii Vânt Presiune Umiditate
    00:00 +23°C° 1 mm 2 m/s 754 mmHg 91%
    01:00 +23°C° 0,1 mm 2 m/s 753 mmHg 92%
    02:00 +21°C° 0,1 mm 2 m/s 753 mmHg 92%
    03:00 +21°C° 0,1 mm 2 m/s 753 mmHg 92%
    04:00 +23°C° 0 mm 2 m/s 753 mmHg 90%
    05:00 +24°C° 0 mm 3 m/s 753 mmHg 88%
    06:00 +24°C° 0 mm 3 m/s 753 mmHg 86%
    07:00 +26°C° 0 mm 3 m/s 753 mmHg 80%
    08:00 +27°C° 0 mm 3 m/s 753 mmHg 73%
    09:00 +29°C° 0 mm 3 m/s 753 mmHg 67%
    10:00 +30°C° 0 mm 4 m/s 753 mmHg 63%
    11:00 +30°C° 0 mm 4 m/s 753 mmHg 59%
    12:00 +32°C° 0 mm 4 m/s 753 mmHg 55%
    13:00 +32°C° 0,2 mm 4 m/s 752 mmHg 56%
    14:00 +32°C° 0,2 mm 4 m/s 752 mmHg 56%
    15:00 +32°C° 0,2 mm 4 m/s 752 mmHg 57%
    16:00 +30°C° 0,1 mm 4 m/s 752 mmHg 61%
    17:00 +30°C° 0,1 mm 4 m/s 752 mmHg 65%
    18:00 +29°C° 0,1 mm 3 m/s 752 mmHg 70%
    19:00 +27°C° 0 mm 3 m/s 752 mmHg 75%
    20:00 +26°C° 0 mm 3 m/s 752 mmHg 79%
    21:00 +24°C° 0 mm 3 m/s 752 mmHg 84%
    22:00 +24°C° 0 mm 3 m/s 752 mmHg 86%
    23:00 +22°C° 0 mm 3 m/s 752 mmHg 88%

    28 Iunie, Joi

    Timp Temperatura Precipitaţii Vânt Presiune Umiditate
    00:00 +21°C° 0 mm 3 m/s 752 mmHg 90%
    01:00 +21°C° 0 mm 3 m/s 752 mmHg 91%
    02:00 +20°C° 0 mm 3 m/s 752 mmHg 91%
    03:00 +20°C° 0 mm 3 m/s 752 mmHg 92%
    04:00 +20°C° 0 mm 4 m/s 752 mmHg 90%
    05:00 +21°C° 0 mm 4 m/s 752 mmHg 87%
    06:00 +22°C° 0 mm 4 m/s 752 mmHg 85%
    07:00 +23°C° 0 mm 5 m/s 752 mmHg 80%
    08:00 +25°C° 0 mm 5 m/s 752 mmHg 74%
    09:00 +27°C° 0 mm 5 m/s 752 mmHg 69%
    10:00 +28°C° 0 mm 5 m/s 752 mmHg 65%
    11:00 +29°C° 0 mm 6 m/s 751 mmHg 60%
    12:00 +30°C° 0 mm 6 m/s 751 mmHg 56%
    13:00 +30°C° 0 mm 6 m/s 751 mmHg 54%
    14:00 +30°C° 0 mm 7 m/s 751 mmHg 53%
    15:00 +30°C° 0 mm 7 m/s 751 mmHg 51%
    16:00 +29°C° 0 mm 6 m/s 751 mmHg 56%
    17:00 +28°C° 0 mm 5 m/s 752 mmHg 60%
    18:00 +27°C° 0 mm 4 m/s 752 mmHg 64%
    19:00 +25°C° 0 mm 4 m/s 752 mmHg 67%
    20:00 +23°C° 0 mm 4 m/s 752 mmHg 70%
    21:00 +21°C° 0 mm 4 m/s 752 mmHg 72%
    22:00 +20°C° 0 mm 4 m/s 752 mmHg 74%
    23:00 +20°C° 0 mm 3 m/s 752 mmHg 75%

    29 Iunie, Vineri

    Timp Temperatura Precipitaţii Vânt Presiune Umiditate
    00:00 +19°C° 0 mm 3 m/s 752 mmHg 77%
    01:00 +18°C° 0 mm 3 m/s 752 mmHg 79%
    02:00 +18°C° 0 mm 3 m/s 752 mmHg 81%
    03:00 +17°C° 0 mm 3 m/s 752 mmHg 84%
    04:00 +18°C° 0 mm 3 m/s 752 mmHg 81%
    05:00 +19°C° 0 mm 3 m/s 752 mmHg 79%
    06:00 +20°C° 0 mm 4 m/s 752 mmHg 76%
    07:00 +22°C° 0 mm 4 m/s 752 mmHg 70%
    08:00 +25°C° 0 mm 4 m/s 752 mmHg 65%
    09:00 +26°C° 0 mm 4 m/s 752 mmHg 59%
    10:00 +27°C° 0 mm 4 m/s 752 mmHg 55%
    11:00 +28°C° 0 mm 4 m/s 752 mmHg 50%
    12:00 +29°C° 0 mm 4 m/s 752 mmHg 45%
    13:00 +29°C° 0 mm 4 m/s 751 mmHg 46%
    14:00 +28°C° 0 mm 4 m/s 751 mmHg 46%
    15:00 +28°C° 0 mm 4 m/s 751 mmHg 46%
    16:00 +28°C° 0 mm 4 m/s 751 mmHg 51%
    17:00 +27°C° 0 mm 3 m/s 751 mmHg 56%
    18:00 +26°C° 0 mm 3 m/s 751 mmHg 60%
    19:00 +24°C° 0 mm 3 m/s 751 mmHg 64%
    20:00 +23°C° 0 mm 2 m/s 751 mmHg 68%
    21:00 +20°C° 0 mm 2 m/s 751 mmHg 73%
    22:00 +19°C° 0 mm 2 m/s 751 mmHg 75%
    23:00 +19°C° 0 mm 1 m/s 751 mmHg 78%

    30 Iunie, Sâmbătă

    Timp Temperatura Precipitaţii Vânt Presiune Umiditate
    00:00 +19°C° 0 mm 1 m/s 751 mmHg 80%
    01:00 +18°C° 0 mm 1 m/s 751 mmHg 82%
    02:00 +18°C° 0 mm 1 m/s 750 mmHg 84%
    03:00 +16°C° 0 mm 1 m/s 750 mmHg 85%
    04:00 +19°C° 0 mm 1 m/s 750 mmHg 82%
    05:00 +20°C° 0 mm 1 m/s 750 mmHg 78%
    06:00 +21°C° 0 mm 1 m/s 750 mmHg 74%
    07:00 +22°C° 0 mm 1 m/s 750 mmHg 68%
    08:00 +24°C° 0 mm 1 m/s 750 mmHg 63%
    09:00 +25°C° 0 mm 2 m/s 750 mmHg 57%
    10:00 +26°C° 0 mm 2 m/s 750 mmHg 54%
    11:00 +27°C° 0 mm 2 m/s 750 mmHg 50%
    12:00 +28°C° 0 mm 2 m/s 749 mmHg 47%
    13:00 +28°C° 0 mm 2 m/s 749 mmHg 47%
    14:00 +28°C° 0 mm 2 m/s 749 mmHg 46%
    15:00 +28°C° 0 mm 2 m/s 748 mmHg 46%
    16:00 +28°C° 0 mm 2 m/s 748 mmHg 49%
    17:00 +28°C° 0 mm 2 m/s 747 mmHg 51%
    18:00 +28°C° 0 mm 2 m/s 747 mmHg 54%
    19:00 +26°C° 0 mm 2 m/s 746 mmHg 55%
    20:00 +24°C° 0 mm 3 m/s 746 mmHg 57%
    21:00 +22°C° 0 mm 4 m/s 745 mmHg 58%
    22:00 +22°C° 0 mm 4 m/s 745 mmHg 55%
    23:00 +22°C° 0 mm 5 m/s 745 mmHg 52%
    Arată mai mult